Terug naar catalogus

THORAD DELTA 1 DEB

ActiefSSO
NORAD 8139·DEBRIS·🇺🇸 United States

Gelanceerd Nov 15, 1974 vanaf Vandenberg Space Force Base

Loading…

Volgende Passages (komende 24 uur)

TLE

VersSource: Space-Track

Epoch: Sep 14, 2026, 08:37 UTC

1 08139U 74089H   26257.35916508 -.00000029  00000-0  91949-4 0  9996
2 08139 101.6276 221.3336 0049663 197.6773 319.9351 12.61955396386357

Volg THORAD DELTA 1 DEB in realtime met AllMySat

Download on the App Store